Regional Weather Roundup
Issued by NWS

Home | Current Version | Previous Version | Graphics & Text | Print | Product List | Glossary On
Versions: 1 2 3 4 5 6 7 8 9 10 11 12 13 14 15 16 17 18 19 20 21 22 23 24 25 26 27
000
ASUS45 KBOI 191410
RWRID
WEATHER ROUNDUP FOR IDAHO
NATIONAL WEATHER SERVICE BOISE ID
800 AM MDT SAT APR 19 2014

NOTE: "FAIR" INDICATES FEW OR NO CLOUDS BELOW 12000 FEET
WITH NO SIGNIFICANT WEATHER AND/OR OBSTRUCTIONS TO VISIBILITY

IDZ012-014-191500-
SOUTHWEST IDAHO


CITY           SKY/WX    TMP DP  RH WIND       PRES   REMARKS
BOISE          SUNNY     45  24  43 SE8       29.96R
CALDWELL       SUNNY     37  25  60 E6        29.99S WCI  33
MOUNTAIN HOME  SUNNY     39  28  63 E9        29.98R WCI  33
$$

IDZ016-017-191500-
SOUTHCENTRAL IDAHO


CITY           SKY/WX    TMP DP  RH WIND       PRES   REMARKS
BURLEY         SUNNY     33  30  88 CALM      30.01R
JEROME         MOSUNNY   41  23  48 NE13      30.01R
TWIN FALLS     MOSUNNY   44  27  51 CALM      30.00R
$$

IDZ019>023-191500-
SOUTHEAST IDAHO


CITY           SKY/WX    TMP DP  RH WIND       PRES   REMARKS
IDAHO FALLS    CLOUDY    37  25  61 S5        30.04R WCI  33
POCATELLO      SUNNY     34  23  64 CALM      30.04R
REXBURG        SUNNY     32  24  72 NE3       30.04R
$$

IDZ006-010-011-018-031-032-191500-
CENTRAL IDAHO MOUNTAINS


CITY           SKY/WX    TMP DP  RH WIND       PRES   REMARKS
MCCALL         SUNNY     26  19  74 E3        29.98S
HAILEY         MOSUNNY   36  18  48 NW10      30.04R WCI  28
STANLEY          N/A     19  15  84 CALM      30.07R
SALMON         SUNNY     27  19  74 CALM      30.06R
CHALLIS        SUNNY     29  32 100 CALM      30.05R
$$

IDZ002-004-006-007-026-191500-
NORTHERN IDAHO


CITY           SKY/WX    TMP DP  RH WIND       PRES   REMARKS
LEWISTON       SUNNY     39  28  64 E8        29.95S WCI  33
LOWELL           N/A     32  30  92 VRB6      30.07S WCI  26
COEUR D`ALENE  SUNNY     30  27  86 CALM      29.96S
MULLAN PASS    SUNNY     26  20  77 S8        29.90S WCI  18
$$



USA.gov is the U.S. government's official web portal to all federal, state and local government web resources and services.